This is the latest recevied weather packets stored in our database for station/object KD0KHX-10. If no packets are shown the sender has not sent any weather packets the latest 10 day(s).
| Time | Temp. | Humidity | Pressure | Rain* | Wind** | Luminosity | Snow |
|---|---|---|---|---|---|---|---|
| 1777650003 | 13.33° C | 51% | 1013.3 hPa | 0 mm | - | - | - |
| 1777649703 | 13.33° C | 55% | 1013.4 hPa | 0 mm | - | - | - |
| 1777649403 | 13.33° C | 55% | 1013.3 hPa | 0 mm | - | - | - |
| 1777649103 | 13.33° C | 55% | 1013.3 hPa | 0 mm | - | - | - |
| 1777649074 | 13.33° C | 55% | 1013.3 hPa | 0 mm | - | - | - |
| 1777648503 | 12.22° C | 62% | 1013.4 hPa | 0 mm | - | - | - |
| 1777648203 | 12.22° C | 65% | 1013.5 hPa | 0 mm | - | - | - |
| 1777648037 | 11.67° C | 66% | 1013.5 hPa | 0 mm | - | - | - |
| 1777647873 | 11.67° C | 67% | 1013.5 hPa | 0 mm | - | - | - |
| 1777647437 | 11.11° C | 69% | 1013.6 hPa | 0 mm | - | - | - |
| 1777646403 | 10° C | 74% | 1013.9 hPa | 0 mm | - | - | - |
| 1777646103 | 9.44° C | 76% | 1013.9 hPa | 0 mm | - | - | - |
| 1777645803 | 9.44° C | 78% | 1013.9 hPa | 0 mm | - | - | - |
| 1777645772 | 8.89° C | 78% | 1013.9 hPa | 0 mm | - | - | - |
| 1777645203 | 8.33° C | 79% | 1013.9 hPa | 0 mm | - | - | - |
| 1777645172 | 8.33° C | 79% | 1013.9 hPa | 0 mm | - | - | - |
| 1777644738 | 7.78° C | 80% | 1014 hPa | 0 mm | - | - | - |
| 1777642803 | 6.11° C | 66% | 1014.2 hPa | 0 mm | - | - | - |
| 1777642503 | 5.56° C | 64% | 1014.2 hPa | 0 mm | - | - | - |
| 1777642203 | 5° C | 63% | 1014.2 hPa | 0 mm | - | - | - |
| 1777641903 | 4.44° C | 64% | 1014.2 hPa | 0 mm | - | - | - |
| 1777641738 | 4.44° C | 64% | 1014.2 hPa | 0 mm | - | - | - |
| 1777641138 | 3.89° C | 64% | 1014.1 hPa | 0 mm | - | - | - |
| 1777640972 | 3.33° C | 65% | 1014.2 hPa | 0 mm | - | - | - |
| 1777638303 | 1.11° C | 71% | 1014 hPa | 0 mm | - | - | - |
* Rain latest hour (hover to see other rain measurements)
** Current wind speed in m/s (hover to see current wind gust speed)